User: anonymous   Login
Location: *
(48.4333°N, 5.0333°W)
Time: 15:30:18
(UTC+00:00)
Language:

SL-4 R/B - Orbit

View from above orbital plane
View from above orbital plane
View from above satellite
View from above satellite

Ground track
Ground track

The orbit data is extracted from the following two-line orbital elements,

1 39679U 14021B   21163.48263781  .00000220  00000-0  28751-4 0  9995
2 39679  51.6149 235.9860 0170537 113.8187 248.0765 15.06994265393629
Epoch (UTC): 12 June 2021 11:34:59
Eccentricity: 0.0170537
inclination: 51.6149°
perigee height: 427 km
apogee height: 663 km
right ascension of ascending node: 235.9860°
argument of perigee: 113.8187°
revolutions per day: 15.06994265
mean anomaly at epoch: 248.0765°
orbit number at epoch: 39362

The dashed part of the orbit path shows where the satellite is in the earth's shadow,  

DLR